Wind_Speed
11 10 9 10 10 11 10 10 10 10 10 10 10 10 11 11 11 11 11 12 12 11 12 12 12 12 12 12 13 14 14 14 14 14 14 14 15 15 15 15 15 15 15 16
11 11 10 10 10 11 10 10 10 10 10 10 10 10 10 11 11 11 11 11 12 11 12 12 13 13 13 13 13 14 14 14 14 14 14 14 15 14 15 16 15 16 16 16
11 11 11 10 10 10 10 11 10 10 11 11 11 10 11 11 11 12 12 12 13 12 12 12 12 13 13 13 13 14 14 14 14 14 15 15 15 15 16 16 16 16 16 16
11 10 11 11 10 11 11 11 12 12 12 12 12 11 10 11 11 12 12 12 12 13 13 13 12 13 13 13 14 14 14 14 14 15 15 15 16 16 16 17 16 17 17 17
11 11 12 12 11 12 12 12 12 12 13 12 12 12 11 11 12 12 12 12 13 13 13 13 13 13 13 13 14 14 14 14 15 15 16 16 16 16 17 17 18 18 19 19
12 12 13 12 12 12 12 12 12 13 13 13 13 13 12 12 13 12 12 12 12 13 13 13 13 14 14 14 14 14 14 15 15 16 16 17 16 17 17 17 18 19 19 20
13 13 13 13 13 13 13 13 13 14 14 14 14 14 13 12 12 12 12 12 12 12 13 13 14 15 14 13 13 14 14 15 15 15 16 16 16 17 17 18 18 19 20 20
13 13 14 14 14 14 14 14 14 15 15 15 14 14 12 13 12 12 13 13 12 12 13 13 13 13 13 13 13 14 15 15 15 15 15 16 17 17 18 18 19 20 20 20
14 14 14 14 14 15 15 15 15 16 16 16 15 14 12 13 13 13 13 13 13 13 13 13 13 14 14 14 14 15 16 17 16 16 16 17 18 19 19 20 19 19 20 20
15 15 14 14 15 15 15 15 15 16 17 17 16 15 13 13 14 14 13 13 13 13 14 14 14 15 16 15 16 17 17 18 18 18 18 18 19 20 20 21 20 20 20 20
15 15 15 15 15 16 16 16 16 17 18 18 17 15 14 14 14 14 13 13 13 14 14 15 15 16 17 16 17 17 17 18 18 18 18 19 20 21 21 22 22 21 21 20
15 16 15 16 16 16 17 17 17 18 19 19 19 16 15 15 15 15 14 14 14 15 15 15 16 16 17 17 18 18 18 18 18 19 19 20 21 21 22 23 23 22 21 21
16 17 17 16 16 17 17 18 18 19 19 19 18 16 16 16 16 16 16 15 16 16 16 17 17 18 18 18 18 18 18 19 19 20 21 21 22 23 23 23 23 22 22 23
18 18 18 18 17 17 17 18 18 19 19 19 18 17 17 17 17 17 16 16 17 18 18 19 19 20 20 20 20 20 19 20 21 21 22 22 23 23 23 24 23 23 24 23
19 20 20 20 20 20 19 19 19 19 18 19 18 17 17 18 18 18 18 18 19 20 20 21 21 22 22 21 22 22 21 21 22 23 23 24 24 24 24 25 25 25 24 24
20 21 21 21 21 21 20 20 20 20 20 20 20 19 18 19 20 20 20 20 21 21 22 22 22 22 22 23 23 24 23 24 24 24 24 25 25 25 25 25 25 25 25 24
22 22 22 21 22 22 21 21 21 21 21 21 21 20 20 20 21 21 22 22 22 22 23 23 23 24 25 25 26 26 26 26 26 26 26 26 26 26 26 25 26 26 26 25
22 23 23 22 22 23 21 21 20 21 21 22 21 21 22 22 22 23 24 24 25 24 25 25 25 25 26 27 27 27 27 27 27 27 27 26 26 26 27 27 26 26 27 27
23 23 23 23 23 22 21 21 21 21 21 21 22 22 23 23 23 23 25 25 26 26 25 25 26 27 27 27 27 28 27 27 27 27 27 26 26 26 26 26 25 26 27 27
23 23 23 23 23 22 22 22 22 22 22 22 23 23 24 24 24 23 24 25 26 27 27 27 26 27 27 27 27 28 28 28 28 27 27 27 26 26 26 26 26 27 27 28
23 23 22 22 22 22 22 22 22 22 22 23 23 23 24 24 24 24 25 26 26 27 27 27 27 27 27 27 27 27 28 28 28 27 27 27 26 26 26 26 26 26 27 27
22 23 23 23 23 21 21 21 22 22 22 23 23 23 23 24 24 23 24 25 26 26 26 26 27 26 26 26 26 26 26 27 27 26 27 26 26 26 26 27 26 26 26 26
23 23 23 23 22 21 22 22 22 23 23 23 24 23 23 24 24 23 22 23 24 25 25 25 25 25 25 25 25 24 25 25 26 26 26 26 26 26 27 27 26 26 27 27
23 23 23 23 22 22 22 22 23 23 24 24 24 24 24 24 24 24 24 24 25 25 25 25 25 25 24 25 24 25 25 25 25 25 26 26 27 27 27 27 26 26 27 27
23 23 22 23 23 23 23 23 23 23 24 24 25 25 24 24 25 25 25 25 25 24 25 25 25 25 24 23 23 24 24 24 24 25 25 26 26 26 26 27 27 27 27 27
22 23 23 23 23 24 24 23 23 24 25 25 25 24 24 24 24 25 25 25 25 25 25 24 24 24 23 23 23 23 23 23 24 24 25 25 26 26 26 26 26 26 27 27
Wind_Direction
264 266 270 271 264 260 259 260 257 257 258 258 257 259 262 266 270 272 273 274 275 271 270 270 271 273 276 276 276 276 276 276 276 278 279 281 281 279 276 276 277 278 280 280
264 266 270 270 265 260 259 258 257 255 260 264 264 263 265 266 271 275 275 276 278 275 273 272 273 274 276 277 276 276 277 278 278 279 280 280 281 283 283 280 279 280 280 279
266 268 267 267 265 261 259 260 259 257 258 263 265 264 265 268 269 272 274 275 279 277 276 273 275 275 275 277 279 279 279 279 279 281 282 282 283 283 282 280 280 282 281 278
266 264 266 268 267 264 260 262 261 262 260 261 262 263 264 269 270 273 275 277 278 279 277 273 272 273 275 278 280 282 281 282 283 284 285 286 285 285 282 281 279 283 283 281
266 263 264 267 267 266 262 260 259 262 263 265 266 267 263 266 271 276 277 278 278 277 276 274 273 275 277 280 283 282 283 284 284 285 287 286 287 287 286 286 284 285 286 284
264 261 262 264 264 263 260 257 259 263 264 266 268 270 269 269 276 277 278 279 278 275 275 274 273 274 276 281 282 283 284 284 283 284 285 286 287 289 289 289 288 288 288 286
263 261 262 260 260 260 259 259 262 264 266 269 270 273 276 276 279 278 278 278 279 277 275 273 275 276 277 279 282 286 287 288 287 286 286 285 286 288 290 292 292 291 291 289
266 263 263 261 261 263 260 262 266 270 271 271 272 274 276 279 280 277 276 277 277 277 277 274 276 279 282 283 284 287 289 289 287 286 285 284 285 287 289 292 293 292 291 287
269 265 264 265 264 263 261 262 268 272 274 273 273 272 273 274 277 277 276 276 276 276 277 276 278 281 285 286 285 287 288 287 285 283 282 284 286 287 289 291 291 291 291 288
271 271 269 268 264 262 261 262 266 268 272 275 274 274 276 274 275 274 275 277 277 277 277 277 278 281 282 283 286 286 287 286 284 283 285 288 290 290 289 290 289 290 290 289
270 271 271 268 265 264 262 261 264 266 269 273 276 277 278 277 276 274 275 276 277 278 277 277 277 279 280 280 284 286 287 287 287 287 289 290 291 291 290 290 289 288 289 289
268 271 271 268 265 264 262 261 262 265 269 272 275 275 273 272 274 275 276 276 278 279 279 278 277 280 280 280 284 286 287 288 288 288 289 290 290 290 291 291 288 288 289 287
266 269 272 267 264 263 262 261 262 265 268 269 270 271 270 271 275 276 275 274 279 280 279 279 281 281 282 283 286 287 288 288 289 289 288 288 289 291 293 293 290 288 288 286
267 270 273 272 270 267 264 263 264 266 267 266 267 268 267 269 270 272 272 275 278 279 280 281 281 282 281 282 284 286 286 286 287 289 290 289 290 292 292 293 290 289 289 287
270 272 273 271 269 266 265 265 264 266 266 267 268 268 267 268 269 273 275 276 276 277 278 280 279 279 278 280 283 284 284 285 287 289 291 291 290 291 291 291 288 289 290 289
272 273 272 270 269 266 265 266 267 265 265 267 269 270 270 269 271 274 276 277 276 275 276 277 277 276 278 281 283 284 285 286 287 288 290 291 292 291 291 290 288 289 289 289
271 274 273 272 269 267 267 268 268 267 265 266 268 269 268 269 271 273 274 274 274 275 275 276 277 278 280 281 283 284 284 284 285 287 289 289 291 292 291 288 288 289 289 289
273 274 274 273 271 270 272 270 270 268 268 267 267 268 269 270 271 273 274 274 274 275 276 277 278 279 281 281 281 281 283 284 285 287 288 288 289 291 291 289 288 289 290 291
272 272 273 272 273 273 273 273 271 270 269 269 269 270 271 272 272 274 275 277 277 277 277 278 279 279 281 281 280 280 282 284 285 286 287 286 287 289 291 290 289 290 291 291
271 270 271 272 274 273 274 274 272 272 271 270 270 271 272 274 275 275 275 277 278 278 279 280 279 280 281 281 281 280 281 283 284 285 286 286 287 288 289 289 290 290 290 291
271 269 269 272 273 272 273 274 273 273 272 271 272 273 275 276 278 276 276 277 278 279 280 279 279 280 280 281 280 280 281 283 284 284 285 286 286 288 288 289 291 291 292 292
271 270 270 273 273 274 273 272 272 273 272 272 274 275 275 277 278 279 280 281 280 281 280 279 280 279 279 280 280 280 282 283 283 283 285 287 287 288 289 290 291 292 292 292
268 269 270 271 273 273 271 272 272 272 274 274 274 274 275 276 276 277 279 280 280 282 283 282 282 281 281 282 282 282 282 283 284 284 286 288 290 291 291 291 291 292 293 292
267 268 267 269 271 272 271 271 272 273 274 275 275 275 275 275 274 275 279 282 282 283 283 283 282 282 283 283 283 284 284 284 285 285 286 289 291 292 293 293 292 292 293 293
267 268 268 268 270 270 270 272 272 272 274 275 275 275 275 275 275 276 279 281 283 283 283 283 283 281 281 283 285 286 285 285 286 287 288 289 291 292 292 293 294 294 293 293
266 266 268 269 269 269 270 272 273 274 275 275 273 274 275 274 275 277 278 280 281 282 282 282 282 282 282 283 285 286 288 288 288 289 289 290 291 292 292 293 295 296 295 294
Height
5820 5822 5821 5822 5822 5822 5823 5824 5825 5825 5825 5825 5826 5827 5827 5827 5827 5828 5828 5828 5828 5827 5827 5827 5827 5827 5827 5827 5828 5827 5827 5827 5827 5827 5826 5826 5825 5825 5824 5824 5824 5823 5823 5822
5819 5819 5819 5819 5819 5819 5820 5821 5822 5823 5823 5823 5823 5824 5824 5825 5825 5825 5825 5825 5825 5824 5824 5824 5824 5824 5824 5824 5824 5824 5823 5823 5823 5823 5822 5822 5822 5821 5821 5820 5820 5819 5819 5818
5816 5817 5816 5816 5817 5817 5818 5819 5820 5820 5820 5820 5821 5822 5822 5822 5822 5822 5822 5822 5822 5821 5821 5821 5821 5821 5821 5820 5820 5820 5820 5819 5819 5819 5819 5818 5818 5817 5817 5816 5815 5815 5814 5814
5812 5813 5813 5814 5814 5815 5815 5816 5817 5817 5817 5818 5819 5819 5820 5819 5819 5819 5819 5819 5819 5818 5818 5818 5818 5818 5817 5817 5816 5816 5816 5816 5815 5815 5814 5814 5814 5813 5812 5812 5811 5810 5810 5809
5810 5810 5810 5811 5812 5812 5813 5813 5814 5814 5814 5815 5815 5816 5818 5816 5816 5816 5816 5816 5816 5815 5815 5814 5814 5814 5814 5813 5813 5812 5812 5812 5811 5811 5810 5810 5809 5809 5808 5807 5807 5806 5805 5804
5807 5807 5808 5808 5809 5809 5810 5810 5811 5811 5811 5812 5812 5813 5814 5814 5814 5814 5813 5813 5812 5812 5812 5811 5811 5811 5810 5810 5809 5809 5808 5808 5807 5807 5806 5806 5805 5804 5804 5803 5802 5801 5800 5799
5804 5804 5804 5805 5805 5806 5807 5807 5808 5807 5808 5809 5809 5809 5811 5811 5810 5810 5810 5809 5809 5808 5808 5808 5807 5807 5807 5806 5806 5805 5804 5804 5803 5802 5802 5801 5801 5800 5799 5798 5797 5796 5795 5794
5801 5802 5802 5802 5802 5802 5803 5804 5805 5805 5805 5805 5805 5806 5808 5807 5806 5806 5806 5806 5805 5805 5805 5804 5804 5804 5803 5802 5802 5801 5800 5800 5799 5798 5797 5797 5796 5795 5794 5793 5792 5791 5790 5789
5797 5798 5799 5798 5798 5799 5799 5800 5801 5801 5801 5801 5802 5803 5804 5803 5803 5802 5802 5802 5802 5801 5801 5800 5800 5800 5799 5799 5798 5797 5796 5795 5794 5793 5793 5792 5791 5790 5789 5787 5786 5785 5784 5783
5794 5794 5795 5795 5795 5795 5796 5797 5797 5797 5796 5797 5798 5799 5800 5799 5799 5799 5799 5798 5798 5798 5797 5796 5796 5796 5795 5795 5794 5793 5792 5791 5790 5789 5788 5787 5785 5784 5783 5781 5780 5779 5778 5776
5790 5791 5792 5791 5791 5792 5792 5793 5793 5793 5793 5793 5793 5797 5796 5795 5795 5795 5795 5795 5794 5794 5793 5793 5792 5792 5791 5790 5789 5788 5787 5786 5785 5784 5782 5781 5780 5778 5777 5775 5774 5773 5771 5770
5787 5787 5787 5788 5788 5788 5788 5788 5789 5789 5789 5788 5789 5794 5791 5791 5791 5791 5791 5791 5790 5790 5789 5789 5788 5787 5786 5786 5785 5784 5782 5781 5780 5778 5777 5776 5774 5772 5771 5769 5768 5766 5765 5763
5783 5783 5783 5784 5785 5785 5784 5784 5784 5785 5785 5785 5785 5790 5787 5787 5786 5786 5786 5786 5786 5786 5785 5784 5783 5782 5781 5780 5779 5778 5777 5775 5774 5773 5771 5770 5768 5767 5765 5763 5761 5760 5758 5757
5779 5779 5780 5780 5779 5779 5779 5779 5779 5780 5780 5780 5781 5783 5783 5782 5782 5782 5782 5782 5781 5781 5780 5779 5778 5777 5776 5775 5773 5772 5771 5769 5768 5766 5765 5764 5762 5760 5758 5756 5754 5753 5751 5750
5774 5774 5774 5774 5774 5774 5774 5774 5775 5775 5775 5776 5777 5777 5777 5777 5777 5777 5777 5776 5776 5775 5774 5773 5772 5771 5769 5768 5767 5766 5765 5763 5762 5760 5758 5757 5755 5753 5751 5749 5747 5745 5744 5742
5769 5769 5769 5769 5768 5768 5769 5769 5769 5770 5770 5771 5771 5772 5772 5771 5771 5772 5771 5771 5770 5769 5768 5767 5765 5764 5763 5762 5761 5760 5758 5757 5755 5753 5751 5749 5747 5746 5744 5742 5740 5738 5736 5734
5763 5763 5763 5763 5763 5763 5764 5765 5764 5764 5764 5765 5765 5767 5766 5766 5766 5766 5765 5765 5763 5762 5761 5760 5759 5757 5756 5755 5753 5752 5751 5749 5747 5746 5744 5742 5740 5738 5736 5734 5732 5730 5728 5726
5758 5757 5757 5757 5758 5758 5761 5759 5758 5758 5758 5759 5759 5759 5759 5759 5759 5759 5758 5757 5756 5755 5753 5752 5751 5750 5748 5747 5745 5744 5742 5741 5740 5738 5736 5734 5733 5731 5729 5727 5725 5723 5721 5718
5752 5751 5751 5751 5751 5752 5753 5753 5752 5752 5752 5752 5752 5753 5752 5752 5752 5752 5751 5749 5748 5747 5745 5744 5743 5741 5740 5738 5737 5735 5734 5733 5732 5730 5728 5727 5725 5723 5722 5720 5718 5716 5713 5711
5745 5745 5746 5745 5745 5746 5748 5747 5746 5747 5746 5746 5745 5745 5745 5745 5745 5745 5743 5741 5740 5739 5737 5736 5734 5733 5732 5730 5728 5727 5726 5725 5723 5722 5720 5719 5717 5716 5714 5712 5710 5708 5706 5703
5739 5739 5739 5739 5738 5739 5740 5740 5740 5741 5741 5739 5738 5738 5738 5737 5737 5737 5735 5733 5732 5730 5729 5728 5726 5725 5723 5722 5720 5719 5718 5716 5715 5714 5713 5711 5710 5708 5706 5705 5703 5701 5698 5696
5733 5733 5733 5733 5733 5735 5733 5733 5733 5733 5732 5732 5731 5731 5731 5730 5729 5728 5727 5725 5724 5722 5721 5719 5718 5716 5715 5713 5712 5711 5710 5708 5707 5706 5705 5703 5702 5701 5699 5697 5695 5693 5691 5689
5726 5727 5727 5727 5729 5727 5726 5726 5726 5725 5725 5725 5724 5724 5723 5723 5722 5721 5720 5718 5717 5715 5713 5712 5710 5708 5707 5706 5704 5703 5702 5701 5700 5698 5697 5696 5695 5693 5691 5689 5687 5685 5683 5681
5720 5720 5720 5720 5721 5720 5720 5719 5719 5718 5718 5718 5717 5717 5716 5715 5714 5714 5712 5711 5709 5708 5706 5704 5703 5701 5700 5699 5697 5696 5695 5694 5692 5691 5690 5689 5687 5686 5684 5682 5680 5677 5675 5673
5713 5713 5713 5713 5714 5714 5713 5713 5712 5712 5711 5710 5710 5709 5708 5708 5707 5706 5705 5704 5702 5701 5699 5697 5696 5694 5693 5692 5690 5689 5688 5687 5686 5684 5683 5682 5680 5678 5676 5674 5672 5670 5668 5665
5706 5706 5706 5707 5707 5706 5707 5706 5705 5705 5704 5703 5703 5702 5701 5700 5699 5698 5697 5697 5695 5693 5692 5690 5689 5687 5686 5685 5684 5683 5681 5680 5679 5677 5676 5675 5673 5671 5669 5667 5665 5662 5660 5657